Regional Weather Roundup
Issued by NWS Memphis, TN

Home | Current Version | Previous Version | Text Only | Print | Product List | Glossary On
Versions: 1 2 3 4 5 6 7 8 9 10 11 12 13 14 15 16 17 18 19 20 21 22 23 24 25 26 27 28 29 30 31 32 33 34 35 36 37 38 39 40 41 42 43 44 45 46 47 48 49 50
000
ASUS44 KMEG 171410
RWRMEG
MEMPHIS CWA HOURLY WEATHER ROUNDUP
NATIONAL WEATHER SERVICE MEMPHIS TN
900 AM CDT THU APR 17 2014

...WEST TENNESSEE...

CITY           SKY/WX    TMP DP  RH WIND       PRES   REMARKS
MEMPHIS INTL   MOSUNNY   56  39  53 S12       30.28R
NWS MEMPHIS      N/A     56 N/A N/A MISG        N/A
JACKSON        SUNNY     55  37  50 S9G21     30.32R
LEXINGTON      SUNNY     54  36  50 VRB7      30.32R
SAVANNAH       SUNNY     54  36  50 S13       30.33R
DYERSBURG      SUNNY     54  34  47 S8        30.32R
UNION CITY     SUNNY     54  39  58 S8        30.30S
PARIS          SUNNY     52  36  54 S12       30.33R


...EASTERN ARKANSAS...

CITY           SKY/WX    TMP DP  RH WIND       PRES   REMARKS
JONESBORO      SUNNY     51  42  71 E3        30.28R
WEST MEMPHIS   SUNNY     54  43  66 S10       30.27R
BATESVILLE     SUNNY     52  39  62 CALM      30.27R
NEWPORT        SUNNY     51  40  66 CALM      30.29R
WALNUT RIDGE   SUNNY     52  39  62 CALM      30.28S
BLYTHEVILLE    SUNNY     53  39  59 S12       30.30R
SEARCY         SUNNY     50  42  73 N5        30.28R
STUTTGART      SUNNY     54  39  58 SE6       30.26S
PINE BLUFF     SUNNY     52  42  69 E5        30.25R
MONTICELLO     MOSUNNY   52  42  69 SE6       30.24R


...NORTH MISSISSIPPI...

CITY           SKY/WX    TMP DP  RH WIND       PRES   REMARKS
TUPELO         SUNNY     55  40  56 SE14      30.32R
OXFORD         SUNNY     54  39  58 S5        30.31S
OLIVE BRANCH   MOSUNNY   54  39  58 SE14G20   30.29R
TUNICA         SUNNY     54  43  66 SE9       30.29S
CLARKSDALE       N/A     54  45  71 SE7       30.29R
CORINTH        SUNNY     54  37  54 S12       30.33R
GRENADA        MOSUNNY   54  43  66 E10       30.29R
GREENWOOD      MOSUNNY   55  43  63 SE9       30.27R
COLUMBUS       SUNNY     55  42  60 SE13      30.32R
STARKVILLE     FAIR      52  43  71 SE9       30.30S
GOLDEN TRIANGL SUNNY     54  39  58 SE2       30.33R


...SOUTHEAST MISSOURI...

CITY           SKY/WX    TMP DP  RH WIND       PRES   REMARKS
DONIPHAN         N/A     54  39  56 SE1         N/A
WEST PLAINS    MOSUNNY   51  35  54 S5        30.25R
POPLAR BLUFF   SUNNY     49  38  65 CALM      30.28R
CAPE GIRARDEAU SUNNY     53  39  59 S5        30.29R


...NORTHWEST ALABAMA...

CITY           SKY/WX    TMP DP  RH WIND       PRES   REMARKS
MUSCLE SHOALS  SUNNY     55  36  48 SE12      30.36R


...MIDDLE TENNESSEE...

CITY           SKY/WX    TMP DP  RH WIND       PRES   REMARKS
NASHVILLE      MOSUNNY   55  31  39 S16G23    30.37R
CLARKSVILLE    SUNNY     54  35  48 S9        30.34R
DICKSON        SUNNY     54  30  40 S14       30.33R
COLUMBIA       SUNNY     55  37  50 SE9       30.35R
LEWISBURG      SUNNY     53  31  43 SE12      30.36R


...WESTERN KENTUCKY...

CITY           SKY/WX    TMP DP  RH WIND       PRES   REMARKS
PADUCAH        SUNNY     57  37  47 S7G21     30.30R
FORT CAMPBELL  SUNNY     55  32  41 S12       30.34R


...CENTRAL ARKANSAS...

CITY           SKY/WX    TMP DP  RH WIND       PRES   REMARKS
LITTLE ROCK    MOSUNNY   53  42  66 CALM      30.26R


SKY/WX REPORTED AS FAIR MEANS FEW OR NO CLOUDS BELOW
12 THOUSAND FEET.




USA.gov is the U.S. government's official web portal to all federal, state and local government web resources and services.